Home > Time Zones > World Clock > Weather > U.S.A. > Reno > Past weeks

Flag for U.S.A. Weather past 2 weeks in Reno, Nevada, U.S.A.

Now
72 °F

Passing clouds.


Feels Like: 77 °F
Forecast: 48 / 78 °F
Wind: 14 mph from Northwest

Location: Reno Tahoe International Airport

Current Time: May 26, 2015 at 9:03:01 PM

Latest Report: May 26, 2015 at 7:55 PM


Visibility: 10 mi

Pressure: 29.83 "Hg

Humidity: 33%

Dew point: 41 °F

Location of RenoLocation

Historic Weather in Reno — Graph

°F

Reno temperature yesterday

Maximum temperature yesterday: 71 °F (at 11:55 AM)
Minimum temperature yesterday: 53 °F (at 11:55 PM)
Average temperature yesterday: 61 °F

Past Weeks' High & Low Weather Summary

 TemperatureHumidityPressure
High78 °F (May 26, 4:55 PM)96% (May 26, 12:55 AM)30.02 "Hg (May 26, 12:55 AM)
Low41 °F (May 15, 3:55 AM)10% (May 12, 11:55 AM)29.62 "Hg (May 12, 8:55 AM)
Average55 °F57%29.86 "Hg
* Reported May 11 7:55 PM — May 26 7:55 PM, Reno, Weather by CustomWeather, © 2015

Note: Actual official high and low records may vary slightly from our data, if they occured in-between our weather recording intervals... More about our weather records

Advertising

Reno weather history for previous 24 hours

 ConditionsComfort  
Time TempWeatherWind HumidityBarometerVisibility
7:55 PM
Tue, May 26
72 °FPassing clouds.14 mph33%29.83 "Hg10 mi
6:55 PM76 °FScattered clouds.14 mph29%29.82 "Hg10 mi
5:55 PM77 °FBroken clouds.12 mph31%29.82 "Hg10 mi
4:55 PM78 °FPartly sunny.12 mph27%29.82 "Hg10 mi
3:55 PM77 °FPartly sunny.3 mph26%29.83 "Hg10 mi
2:55 PM76 °FPartly sunny.5 mph29%29.84 "Hg10 mi
1:55 PM74 °FPartly sunny.5 mph28%29.86 "Hg10 mi
12:55 PM75 °FScattered clouds.7 mph28%29.88 "Hg10 mi
11:55 AM72 °FPassing clouds.6 mph33%29.90 "Hg10 mi
10:55 AM67 °FPassing clouds.3 mph42%29.92 "Hg10 mi
9:55 AM63 °FPassing clouds.No wind50%29.93 "Hg10 mi
8:55 AM58 °FPassing clouds.No wind62%29.96 "Hg10 mi
7:55 AM54 °FPassing clouds.No wind72%29.96 "Hg10 mi
6:55 AM49 °FPassing clouds.3 mph86%29.97 "Hg10 mi
5:55 AM46 °FPassing clouds.3 mph93%29.96 "Hg10 mi
4:55 AM47 °FPassing clouds.No wind93%29.94 "Hg10 mi
3:55 AM49 °FClear.No wind90%29.93 "Hg10 mi
2:55 AM49 °FClear.No wind93%29.93 "Hg10 mi
1:55 AM50 °FClear.No wind93%29.94 "Hg10 mi
12:55 AM51 °FClear.5 mph96%29.93 "Hg10 mi
11:55 PM
Mon, May 25
53 °FClear.3 mph93%29.93 "Hg10 mi
10:55 PM54 °FPassing clouds.No wind86%29.93 "Hg10 mi
9:55 PM56 °FPassing clouds.No wind90%29.92 "Hg10 mi
Weather by CustomWeather, © 2015

See weather overviewHow to use our weather pages